Regional Weather Roundup
Issued by NWS Newport/Morehead, NC

Home | Current Version | Previous Version | Text Only | Print | Product List | Glossary On
Versions: 1 2 3 4 5 6 7 8 9 10 11 12 13 14 15 16 17 18 19 20 21 22 23 24 25 26 27 28 29 30 31 32 33 34 35 36 37 38 39 40 41 42 43 44 45 46 47 48 49 50
000
ASUS42 KMHX 111722
RWRMHX
WEATHER ROUNDUP FOR EASTERN NORTH CAROLINA
NATIONAL WEATHER SERVICE NEWPORT/MOREHEAD CITY NC
100 PM EDT FRI JUL 11 2014

NOTE: "FAIR" INDICATES FEW OR NO CLOUDS BELOW 12,000 FEET
WITH NO SIGNIFICANT WEATHER AND/OR OBSTRUCTIONS TO VISIBILITY

NCZ015>017-031-032-045>047-102-103-111800-
NORTH COAST

CITY           SKY/WX    TMP DP  RH WIND       PRES   REMARKS
EDENTON        PTSUNNY   80  70  73 N8        30.17F
ELIZABETH CITY PTSUNNY   81  71  71 N7        30.17F
KITTY HAWK     PTSUNNY   79  73  80 E7        30.15F
MANTEO         NOT AVBL

$$

NCZ045>047-081-094-103-104-111800-
CENTRAL COAST

CITY           SKY/WX    TMP DP  RH WIND       PRES   REMARKS
FRISCO         PTSUNNY   83  74  74 SW10      30.17R
SWANQUARTER      N/A     82 N/A N/A W8        30.15S

$$

NCZ095-097-098-100-101-111800-
SOUTHERN COAST

CITY           SKY/WX    TMP DP  RH WIND       PRES   REMARKS
BEAUFORT       CLOUDY    81  71  71 W9        30.17S
CEDAR ISLAND     N/A     81 N/A N/A NW6       30.21S
JACKSONVILLE   CLOUDY    80  71  74 CALM      30.17S
NEWPORT        NOT AVBL
PINEY ISLAND   CLOUDY    79  74  84 W7        30.16S
WILMINGTON     CLOUDY    79  72  79 CALM      30.18S


$$

NCZ011>013-027>030-043-044-078>080-089-090>093-098-111800-
COASTAL PLAIN

CITY           SKY/WX    TMP DP  RH WIND       PRES   REMARKS
AHOSKIE        CLOUDY    77  69  74 N5        30.19F
CLINTON        CLOUDY    79  72  80 CALM      30.19S
ELIZABETHTOWN  CLOUDY    78  71  77 CALM      30.18F
GOLDSBORO      CLOUDY    80  74  81 N5        30.16F
GREENVILLE     CLOUDY    81  72  74 N5        30.19S
HAVELOCK       CLOUDY    82  71  69 CALM      30.17F
KENANSVILLE    CLOUDY    77  69  77 CALM      30.19S
KINSTON        CLOUDY    81  70  69 CALM      30.18F
NEW BERN       CLOUDY    82  72  69 NW3       30.18F
RICHLANDS      CLOUDY    81  70  69 W5        30.18S
ROANOKE RAPIDS NOT AVBL
ROCKY MOUNT    CLOUDY    78  70  76 NE6       30.20S
WASHINGTON     PTSUNNY  N/A N/A N/A CALM      30.18S
WHITEVILLE     CLOUDY    77  71  83 CALM      30.19R

$$

AMZ130-135-150-152-154-156-158-170-250-252-270-ANZ085-086-088-633-658-670-111800-
MARINE OBSERVATIONS

STATION/POSITION TIME  TEMP    WIND        PRES    WAVE   SWELL
                       AIR SEA DIR/SP/G            HT/PER HT/PER
                 (UTC) (F)     (DEG/KT/KT) (MB)    (FT/S) (FT/S)
CHESAPEAKE LIGHT NOT AVBL
BUOY 44014       1700   75 77  330/  4/  4 1021.4    2/ 6   2/ 6
DUCK             1700   73 66   10/  7/  8 1021.0
2E DUCK          1700                        N/A     2/ 8
OREGON INLET     1700   79 82   60/  5/  7 1021.2
BUOY 44095       1700      72                N/A     3/ 6
HATTERAS CG      1700   81 82  210/  5/ 11 1021.9
DIAMOND BUOY     1700          VRB 10/ 12  1021.3    2/ 5   2/ 5
17S OCRACOKE INL NOT AVBL
CAPE LOOKOUT     1700   79     250/  5/  7 1021.7
BEAUFORT LAB     1700   80 82  220/  6/  8 1021.1
30 SE NEW RIVER  1700   79 81  280/  2/  4 1022.3    3/ 6   3/ 6
5 SE WRIGHTSVILL 1700   75 81  300/  2/  2 1022.7
FRYING PAN BUOY  NOT AVBL
BUOY 41001       NOT AVBL
BUOY 41002       1620   82 82  210/  6/  8 1023.3    3/ 9   3/ 9
BUOY 41004       1700   81 82  200/  4/  4 1021.2    3/ 5   2/ 5

$$



USA.gov is the U.S. government's official web portal to all federal, state and local government web resources and services.